Location: Days
(41.3591°N, 106.7339°W)
Time: 20:54:14
(UTC+00:00)

Vanguard 2 Rocket - All Passes

Search period start: 24 May 2022 00:00
Search period end: 03 June 2022 00:00
Orbit: 553 x 3323 km, 32.9° (Epoch: 24 May)

Date Brightness Start Highest point End Pass type
(mag) Time Alt. Az. Time Alt. Az. Time Alt. Az.
24 May - 01:56:50 10° W 02:06:15 34° SSW 02:12:06 10° SE daylight
24 May - 18:05:55 10° S 18:20:01 24° SE 18:32:08 10° E daylight
24 May - 20:18:10 10° SW 20:36:04 46° SSE 20:48:29 10° E daylight
24 May - 22:35:19 10° WSW 22:51:56 58° S 23:01:43 10° ESE daylight
25 May - 00:54:03 10° W 01:06:15 45° SSW 01:13:21 10° SE daylight
25 May - 03:13:37 10° WSW 03:18:14 15° SW 03:21:50 10° S visible
25 May - 17:07:31 10° S 17:18:28 17° SE 17:28:42 10° ESE daylight
25 May - 19:16:38 10° SSW 19:34:16 40° SSE 19:47:48 10° E daylight
25 May - 21:32:30 10° WSW 21:50:35 57° S 22:01:55 10° E daylight
25 May - 23:51:04 10° W 00:05:48 54° SSW 00:14:14 10° ESE daylight
26 May - 02:10:10 10° W 02:18:46 26° SW 02:24:24 10° SSE daylight
26 May - 16:13:51 10° SE 16:17:07 11° SE 16:20:22 10° ESE daylight
26 May - 18:15:55 10° SSW 18:32:26 33° SSE 18:46:29 10° E daylight
26 May - 20:30:01 10° SW 20:48:51 54° SSE 21:01:47 10° E daylight
26 May - 22:47:59 10° WSW 23:04:52 59° S 23:14:49 10° ESE daylight
27 May - 01:07:06 10° W 01:18:54 38° SSW 01:26:01 10° SE daylight
27 May - 17:16:14 10° S 17:30:42 26° SE 17:44:13 10° E daylight
27 May - 19:28:06 10° SW 19:46:54 49° SSE 20:01:14 10° E daylight
27 May - 21:44:59 10° WSW 22:03:28 61° S 22:15:04 10° ESE daylight
28 May - 00:03:58 10° W 00:18:34 49° SSW 00:27:06 10° SE daylight
28 May - 02:23:59 10° W 02:31:01 19° SW 02:36:06 10° S daylight
28 May - 16:18:03 10° S 16:29:13 18° SE 16:40:22 10° E daylight
28 May - 18:26:53 10° SSW 18:44:52 42° SSE 19:00:10 10° E daylight
28 May - 20:42:17 10° WSW 21:01:40 60° S 21:14:57 10° E daylight
28 May - 23:00:46 10° W 23:17:43 57° SSW 23:27:48 10° ESE daylight
29 May - 01:20:20 10° W 01:31:19 31° SW 01:38:19 10° SSE daylight
29 May - 15:24:20 10° SE 15:28:03 11° SE 15:31:49 10° ESE daylight
29 May - 17:26:30 10° SSW 17:42:55 34° SE 17:58:24 10° E daylight
29 May - 19:40:04 10° SW 19:59:34 56° SSE 20:14:28 10° E daylight
29 May - 21:57:40 10° W 22:16:20 62° S 22:28:06 10° ESE daylight
30 May - 00:16:57 10° W 00:31:09 42° SSW 00:39:43 10° SE daylight
30 May - 02:39:05 10° WSW 02:43:04 13° SW 02:46:24 10° SSW daylight
30 May - 16:27:08 10° S 16:41:15 26° SE 16:55:39 10° E daylight
30 May - 18:38:29 10° SW 18:57:20 50° SSE 19:13:31 10° E daylight
30 May - 20:54:49 10° WSW 21:14:29 64° S 21:28:03 10° ESE daylight
30 May - 23:13:39 10° W 23:30:24 52° SSW 23:40:37 10° SE daylight
31 May - 01:33:58 10° W 01:43:29 23° SW 01:50:05 10° S daylight
31 May - 15:29:17 10° SSE 15:39:56 18° SE 15:51:17 10° E daylight
31 May - 17:37:39 10° SSW 17:55:11 43° SSE 18:12:00 10° E daylight
31 May - 19:52:24 10° WSW 20:12:17 62° S 20:27:35 10° E daylight
31 May - 22:10:27 10° W 22:29:07 60° SSW 22:41:03 10° ESE daylight
01 Jun - 00:30:07 10° W 00:43:29 34° SW 00:52:00 10° SSE daylight
01 Jun - 14:36:47 10° SE 14:39:01 10° SE 14:41:18 10° ESE daylight
01 Jun - 16:37:39 10° SSW 16:53:17 35° SE 17:09:43 10° E daylight
01 Jun - 18:50:34 10° SW 19:09:54 58° SSE 19:26:40 10° E daylight
01 Jun - 21:07:31 10° W 21:27:17 64° S 21:41:02 10° ESE daylight
01 Jun - 23:26:36 10° W 23:42:54 45° SSW 23:53:11 10° SE daylight
02 Jun - 01:48:30 10° W 01:55:26 16° SW 02:00:49 10° SSW daylight
02 Jun - 15:38:39 10° S 15:51:47 26° SE 16:06:28 10° E daylight
02 Jun - 17:49:25 10° SW 18:07:32 52° SSE 18:25:14 10° E daylight
02 Jun - 20:04:58 10° WSW 20:25:03 65° S 20:40:37 10° E daylight
02 Jun - 22:23:19 10° W 22:41:45 55° SSW 22:53:48 10° SE daylight
